status,avgMeasuredTime,avgSpeed,extID,medianMeasuredTime,TIMESTAMP,vehicleCount,_id,REPORT_ID
OK,219,13,653,219,2014-08-01T07:50:00,0,20746205,195339
OK,219,13,653,219,2014-08-01T07:55:00,0,20746377,195339
OK,219,13,653,219,2014-08-01T08:00:00,0,20746708,195339
OK,219,13,653,219,2014-08-01T08:05:00,0,20747157,195339
OK,219,13,653,219,2014-08-01T08:10:00,0,20747530,195339
OK,219,13,653,219,2014-08-01T08:15:00,0,20747979,195339
OK,219,13,653,219,2014-08-01T08:20:00,0,20748428,195339
OK,219,13,653,219,2014-08-01T08:25:00,0,20748877,195339
OK,36,80,653,36,2014-08-01T08:30:00,1,20749326,195339
OK,36,80,653,36,2014-08-01T08:35:00,0,20749775,195339
OK,36,80,653,36,2014-08-01T08:40:00,0,20750224,195339
OK,36,80,653,36,2014-08-01T08:45:00,0,20750673,195339
OK,36,80,653,36,2014-08-01T08:50:00,0,20751122,195339
OK,36,80,653,36,2014-08-01T08:55:00,0,20751571,195339
OK,36,80,653,36,2014-08-01T09:00:00,0,20752020,195339
OK,36,80,653,36,2014-08-01T09:05:00,0,20752469,195339
OK,36,80,653,36,2014-08-01T09:10:00,0,20752918,195339
OK,36,80,653,36,2014-08-01T09:15:00,0,20753367,195339
OK,36,80,653,36,2014-08-01T09:20:00,0,20753816,195339
OK,36,80,653,36,2014-08-01T09:25:00,0,20754265,195339
OK,36,80,653,36,2014-08-01T09:30:00,0,20754714,195339
OK,36,80,653,36,2014-08-01T09:35:00,0,20755163,195339
OK,36,80,653,36,2014-08-01T09:40:00,0,20755612,195339
OK,36,80,653,36,2014-08-01T09:45:00,0,20756061,195339
OK,36,80,653,36,2014-08-01T09:50:00,0,20756510,195339
OK,36,80,653,36,2014-08-01T09:55:00,0,20756959,195339
OK,105,27,653,105,2014-08-01T10:00:00,1,20757408,195339
OK,105,27,653,105,2014-08-01T10:05:00,1,20757857,195339
OK,105,27,653,105,2014-08-01T10:10:00,0,20758306,195339
OK,105,27,653,105,2014-08-01T10:15:00,0,20758755,195339
OK,105,27,653,105,2014-08-01T10:20:00,0,20759204,195339
OK,105,27,653,105,2014-08-01T10:25:00,0,20759653,195339
OK,161,17,653,161,2014-08-01T10:30:00,4,20760102,195339
OK,164,17,653,164,2014-08-01T10:35:00,4,20760551,195339
OK,164,17,653,164,2014-08-01T10:40:00,0,20761000,195339
OK,164,17,653,164,2014-08-01T10:45:00,0,20761449,195339
OK,164,17,653,164,2014-08-01T10:50:00,0,20761898,195339
OK,135,21,653,135,2014-08-01T10:55:00,1,20762347,195339
OK,135,21,653,135,2014-08-01T11:00:00,1,20762796,195339
OK,135,21,653,135,2014-08-01T11:05:00,0,20763245,195339
OK,135,21,653,135,2014-08-01T11:10:00,0,20763694,195339
OK,135,21,653,135,2014-08-01T11:15:00,0,20764143,195339
OK,135,21,653,135,2014-08-01T11:20:00,0,20764591,195339
OK,169,17,653,169,2014-08-01T11:25:00,2,20765040,195339
OK,169,17,653,169,2014-08-01T11:30:00,2,20765489,195339
OK,208,13,653,208,2014-08-01T11:35:00,1,20765938,195339
OK,208,13,653,208,2014-08-01T11:40:00,1,20766387,195339
OK,208,13,653,208,2014-08-01T11:45:00,0,20766836,195339
OK,208,13,653,208,2014-08-01T11:50:00,0,20767285,195339
OK,208,13,653,208,2014-08-01T11:55:00,0,20767734,195339
OK,208,13,653,208,2014-08-01T12:00:00,0,20768183,195339
OK,208,13,653,208,2014-08-01T12:05:00,0,20768632,195339
OK,208,13,653,208,2014-08-01T12:10:00,0,20769081,195339
OK,208,13,653,208,2014-08-01T12:15:00,0,20769530,195339
OK,80,36,653,80,2014-08-01T12:20:00,1,20769979,195339
OK,80,36,653,80,2014-08-01T12:25:00,1,20770428,195339
OK,80,36,653,80,2014-08-01T12:30:00,0,20770877,195339
OK,80,36,653,80,2014-08-01T12:35:00,0,20771326,195339
OK,80,36,653,80,2014-08-01T12:40:00,0,20771775,195339
OK,80,36,653,80,2014-08-01T12:45:00,0,20772224,195339
OK,133,21,653,133,2014-08-01T12:50:00,1,20772673,195339
OK,133,21,653,133,2014-08-01T12:55:00,1,20773122,195339
OK,133,21,653,133,2014-08-01T13:00:00,0,20773571,195339
OK,133,21,653,133,2014-08-01T13:05:00,0,20774020,195339
OK,133,21,653,133,2014-08-01T13:10:00,0,20774469,195339
OK,133,21,653,133,2014-08-01T13:15:00,0,20774918,195339
OK,68,42,653,68,2014-08-01T13:20:00,1,20775367,195339
OK,68,42,653,68,2014-08-01T13:25:00,0,20775816,195339
OK,68,42,653,68,2014-08-01T13:30:00,0,20776265,195339
OK,68,42,653,68,2014-08-01T13:35:00,0,20776714,195339
OK,68,42,653,68,2014-08-01T13:40:00,0,20777163,195339
OK,68,42,653,68,2014-08-01T13:45:00,0,20777612,195339
OK,68,42,653,68,2014-08-01T13:50:00,0,20778061,195339
OK,68,42,653,68,2014-08-01T13:55:00,0,20778510,195339
OK,68,42,653,68,2014-08-01T14:00:00,0,20778959,195339
OK,68,42,653,68,2014-08-01T14:05:00,0,20779408,195339
OK,68,42,653,68,2014-08-01T14:10:00,0,20779857,195339
OK,68,42,653,68,2014-08-01T14:15:00,0,20780306,195339
OK,68,42,653,68,2014-08-01T14:20:00,0,20780755,195339
OK,68,42,653,68,2014-08-01T14:25:00,0,20781204,195339
OK,68,42,653,68,2014-08-01T14:30:00,0,20781653,195339
OK,68,42,653,68,2014-08-01T14:35:00,0,20782102,195339
OK,68,42,653,68,2014-08-01T14:40:00,0,20782551,195339
OK,68,42,653,68,2014-08-01T14:45:00,0,20783000,195339
OK,68,42,653,68,2014-08-01T14:50:00,0,20783449,195339
OK,68,42,653,68,2014-08-01T14:55:00,0,20783898,195339
OK,68,42,653,68,2014-08-01T15:00:00,0,20784347,195339
OK,68,42,653,68,2014-08-01T15:05:00,0,20784796,195339
OK,68,42,653,68,2014-08-01T15:10:00,0,20785245,195339
OK,68,42,653,68,2014-08-01T15:15:00,0,20785694,195339
OK,68,42,653,68,2014-08-01T15:20:00,0,20786143,195339
OK,68,42,653,68,2014-08-01T15:25:00,0,20786592,195339
OK,68,42,653,68,2014-08-01T15:30:00,0,20787041,195339
OK,68,42,653,68,2014-08-01T15:35:00,0,20787490,195339
OK,68,42,653,68,2014-08-01T15:40:00,0,20787939,195339
OK,68,42,653,68,2014-08-01T15:45:00,0,20788388,195339
OK,68,42,653,68,2014-08-01T15:50:00,0,20788837,195339
OK,68,42,653,68,2014-08-01T15:55:00,0,20789286,195339
OK,68,42,653,68,2014-08-01T16:00:00,0,20789735,195339
OK,68,42,653,68,2014-08-01T16:05:00,0,20790184,195339
OK,68,42,653,68,2014-08-01T16:10:00,0,20790633,195339
OK,68,42,653,68,2014-08-01T16:15:00,0,20791082,195339
OK,68,42,653,68,2014-08-01T16:20:00,0,20791531,195339
OK,68,42,653,68,2014-08-01T16:25:00,0,20791980,195339
OK,68,42,653,68,2014-08-01T16:30:00,0,20792429,195339
OK,68,42,653,68,2014-08-01T16:35:00,0,20792878,195339
OK,68,42,653,68,2014-08-01T16:40:00,0,20793327,195339
OK,68,42,653,68,2014-08-01T16:45:00,0,20793776,195339
OK,68,42,653,68,2014-08-01T16:50:00,0,20794225,195339
OK,68,42,653,68,2014-08-01T16:55:00,0,20794674,195339
OK,68,42,653,68,2014-08-01T17:00:00,0,20795123,195339
OK,68,42,653,68,2014-08-01T17:05:00,0,20795572,195339
OK,68,42,653,68,2014-08-01T17:10:00,0,20796021,195339
OK,68,42,653,68,2014-08-01T17:15:00,0,20796470,195339
OK,68,42,653,68,2014-08-01T17:20:00,0,20796919,195339
OK,68,42,653,68,2014-08-01T17:25:00,0,20797368,195339
OK,68,42,653,68,2014-08-01T17:30:00,0,20797817,195339
OK,68,42,653,68,2014-08-01T17:35:00,0,20798266,195339
OK,68,42,653,68,2014-08-01T17:40:00,0,20798715,195339
OK,68,42,653,68,2014-08-01T17:45:00,0,20799164,195339
OK,68,42,653,68,2014-08-01T17:50:00,0,20799613,195339
OK,68,42,653,68,2014-08-01T17:55:00,0,20800062,195339
OK,68,42,653,68,2014-08-01T18:00:00,0,20800511,195339
OK,68,42,653,68,2014-08-01T18:05:00,0,20800960,195339
OK,68,42,653,68,2014-08-01T18:10:00,0,20801409,195339
OK,68,42,653,68,2014-08-01T18:15:00,0,20801858,195339
OK,68,42,653,68,2014-08-01T18:20:00,0,20802307,195339
OK,68,42,653,68,2014-08-01T18:25:00,0,20802756,195339
OK,68,42,653,68,2014-08-01T18:30:00,0,20803205,195339
OK,68,42,653,68,2014-08-01T18:35:00,0,20803654,195339
OK,68,42,653,68,2014-08-01T18:40:00,0,20804103,195339
OK,68,42,653,68,2014-08-01T18:45:00,0,20804552,195339
OK,68,42,653,68,2014-08-01T18:50:00,0,20805001,195339
OK,68,42,653,68,2014-08-01T18:55:00,0,20805450,195339
OK,68,42,653,68,2014-08-01T19:00:00,0,20805899,195339
OK,68,42,653,68,2014-08-01T19:05:00,0,20806348,195339
OK,68,42,653,68,2014-08-01T19:10:00,0,20806797,195339
OK,68,42,653,68,2014-08-01T19:15:00,0,20807246,195339
OK,68,42,653,68,2014-08-01T19:20:00,0,20807695,195339
OK,68,42,653,68,2014-08-01T19:25:00,0,20808144,195339
OK,68,42,653,68,2014-08-01T19:30:00,0,20808593,195339
OK,68,42,653,68,2014-08-01T19:35:00,0,20809042,195339
OK,68,42,653,68,2014-08-01T19:40:00,0,20809491,195339
OK,68,42,653,68,2014-08-01T19:45:00,0,20809940,195339
OK,68,42,653,68,2014-08-01T19:50:00,0,20810389,195339
OK,68,42,653,68,2014-08-01T19:55:00,0,20810838,195339
OK,68,42,653,68,2014-08-01T20:00:00,0,20811285,195339
OK,68,42,653,68,2014-08-01T20:05:00,0,20811458,195339
OK,68,42,653,68,2014-08-01T20:10:00,0,20811660,195339
OK,68,42,653,68,2014-08-01T20:15:00,0,20811867,195339
OK,68,42,653,68,2014-08-01T20:20:00,0,20812075,195339
OK,68,42,653,68,2014-08-01T20:25:00,0,20812295,195339
OK,68,42,653,68,2014-08-01T20:30:00,0,20812508,195339
OK,68,42,653,68,2014-08-01T20:35:00,0,20812718,195339
OK,68,42,653,68,2014-08-01T20:40:00,0,20812919,195339
OK,68,42,653,68,2014-08-01T20:45:00,0,20813126,195339
OK,68,42,653,68,2014-08-01T20:50:00,0,20813337,195339
OK,68,42,653,68,2014-08-01T20:55:00,0,20813567,195339
OK,68,42,653,68,2014-08-01T21:00:00,0,20813805,195339
OK,68,42,653,68,2014-08-01T21:05:00,0,20813982,195339
OK,68,42,653,68,2014-08-01T21:15:00,0,20814418,195339
OK,68,42,653,68,2014-08-01T21:20:00,0,20814624,195339
OK,68,42,653,68,2014-08-01T21:25:00,0,20814854,195339
OK,68,42,653,68,2014-08-01T21:30:00,0,20815129,195339
OK,68,42,653,68,2014-08-01T21:35:00,0,20815363,195339
OK,68,42,653,68,2014-08-01T21:40:00,0,20815586,195339
OK,68,42,653,68,2014-08-01T21:45:00,0,20815823,195339
OK,68,42,653,68,2014-08-01T21:50:00,0,20816064,195339
OK,68,42,653,68,2014-08-01T21:55:00,0,20816299,195339
OK,68,42,653,68,2014-08-01T22:00:00,0,20816567,195339
OK,68,42,653,68,2014-08-01T22:05:00,0,20817016,195339
OK,68,42,653,68,2014-08-01T22:10:00,0,20817338,195339
OK,68,42,653,68,2014-08-01T22:15:00,0,20817767,195339
OK,68,42,653,68,2014-08-01T22:20:00,0,20818057,195339
OK,68,42,653,68,2014-08-01T22:25:00,0,20818373,195339
OK,68,42,653,68,2014-08-01T22:30:00,0,20818707,195339
OK,68,42,653,68,2014-08-01T22:35:00,0,20819012,195339
OK,68,42,653,68,2014-08-01T22:40:00,0,20819191,195339
OK,68,42,653,68,2014-08-01T22:45:00,0,20819479,195339
OK,68,42,653,68,2014-08-01T22:50:00,0,20819714,195339
OK,68,42,653,68,2014-08-01T22:55:00,0,20819967,195339
OK,68,42,653,68,2014-08-01T23:00:00,0,20820143,195339
OK,68,42,653,68,2014-08-01T23:05:00,0,20820396,195339
OK,68,42,653,68,2014-08-01T23:10:00,0,20820626,195339
OK,68,42,653,68,2014-08-01T23:15:00,0,20820814,195339
OK,68,42,653,68,2014-08-01T23:25:00,0,20821243,195339
OK,68,42,653,68,2014-08-01T23:30:00,0,20821468,195339
OK,68,42,653,68,2014-08-01T23:35:00,0,20821713,195339
OK,68,42,653,68,2014-08-01T23:40:00,0,20821892,195339
OK,68,42,653,68,2014-08-01T23:45:00,0,20822115,195339
OK,68,42,653,68,2014-08-01T23:50:00,0,20822382,195339
OK,68,42,653,68,2014-08-01T23:55:00,0,20822708,195339
OK,68,42,653,68,2014-08-02T00:00:00,0,20823006,195339
OK,68,42,653,68,2014-08-02T00:05:00,0,20823455,195339
OK,68,42,653,68,2014-08-02T00:10:00,0,20823904,195339
OK,68,42,653,68,2014-08-02T00:15:00,0,20824353,195339
OK,68,42,653,68,2014-08-02T00:20:00,0,20824802,195339
OK,68,42,653,68,2014-08-02T00:25:00,0,20825251,195339
OK,68,42,653,68,2014-08-02T00:30:00,0,20825700,195339
OK,68,42,653,68,2014-08-02T00:35:00,0,20826149,195339
OK,68,42,653,68,2014-08-02T00:40:00,0,20826598,195339
OK,68,42,653,68,2014-08-02T00:45:00,0,20827047,195339
OK,68,42,653,68,2014-08-02T00:50:00,0,20827496,195339
OK,68,42,653,68,2014-08-02T00:55:00,0,20827945,195339
OK,68,42,653,68,2014-08-02T01:00:00,0,20828394,195339
OK,68,42,653,68,2014-08-02T01:05:00,0,20828843,195339
OK,68,42,653,68,2014-08-02T01:10:00,0,20829292,195339
OK,68,42,653,68,2014-08-02T01:15:00,0,20829741,195339
OK,68,42,653,68,2014-08-02T01:20:00,0,20830190,195339
OK,68,42,653,68,2014-08-02T01:25:00,0,20830639,195339
OK,68,42,653,68,2014-08-02T01:30:00,0,20831088,195339
OK,68,42,653,68,2014-08-02T01:35:00,0,20831537,195339
OK,68,42,653,68,2014-08-02T01:40:00,0,20831986,195339
OK,68,42,653,68,2014-08-02T01:45:00,0,20832435,195339
OK,68,42,653,68,2014-08-02T01:50:00,0,20832884,195339
OK,68,42,653,68,2014-08-02T01:55:00,0,20833333,195339
OK,68,42,653,68,2014-08-02T02:00:00,0,20833782,195339
OK,68,42,653,68,2014-08-02T02:05:00,0,20834231,195339
OK,68,42,653,68,2014-08-02T02:10:00,0,20834680,195339
OK,68,42,653,68,2014-08-02T02:15:00,0,20835129,195339
OK,68,42,653,68,2014-08-02T02:20:00,0,20835578,195339
OK,68,42,653,68,2014-08-02T02:25:00,0,20836027,195339
OK,68,42,653,68,2014-08-02T02:30:00,0,20836476,195339
OK,68,42,653,68,2014-08-02T02:35:00,0,20836925,195339
OK,68,42,653,68,2014-08-02T02:40:00,0,20837374,195339
OK,68,42,653,68,2014-08-02T02:45:00,0,20837823,195339
OK,68,42,653,68,2014-08-02T02:50:00,0,20838272,195339
OK,68,42,653,68,2014-08-02T02:55:00,0,20838721,195339
OK,68,42,653,68,2014-08-02T03:00:00,0,20839170,195339
OK,68,42,653,68,2014-08-02T03:05:00,0,20839619,195339
OK,68,42,653,68,2014-08-02T03:10:00,0,20840068,195339
OK,68,42,653,68,2014-08-02T03:15:00,0,20840517,195339
OK,68,42,653,68,2014-08-02T03:20:00,0,20840966,195339
OK,68,42,653,68,2014-08-02T03:25:00,0,20841415,195339
OK,68,42,653,68,2014-08-02T03:30:00,0,20841864,195339
OK,68,42,653,68,2014-08-02T03:35:00,0,20842313,195339
OK,68,42,653,68,2014-08-02T03:40:00,0,20842762,195339
OK,68,42,653,68,2014-08-02T03:45:00,0,20843211,195339
OK,68,42,653,68,2014-08-02T03:50:00,0,20843660,195339
OK,68,42,653,68,2014-08-02T03:55:00,0,20844109,195339
OK,68,42,653,68,2014-08-02T04:00:00,0,20844558,195339
OK,68,42,653,68,2014-08-02T04:05:00,0,20844689,195339
OK,68,42,653,68,2014-08-02T04:10:00,0,20845019,195339
OK,68,42,653,68,2014-08-02T04:15:00,0,20845199,195339
OK,68,42,653,68,2014-08-02T04:20:00,0,20845555,195339
OK,68,42,653,68,2014-08-02T04:25:00,0,20845923,195339
OK,68,42,653,68,2014-08-02T04:30:00,0,20846111,195339
OK,68,42,653,68,2014-08-02T04:35:00,0,20846478,195339
OK,68,42,653,68,2014-08-02T04:40:00,0,20846861,195339
OK,68,42,653,68,2014-08-02T04:45:00,0,20847120,195339
OK,68,42,653,68,2014-08-02T04:50:00,0,20847486,195339
OK,68,42,653,68,2014-08-02T04:55:00,0,20847843,195339
OK,68,42,653,68,2014-08-02T05:00:00,0,20848203,195339
OK,68,42,653,68,2014-08-02T05:05:00,0,20848368,195339
OK,68,42,653,68,2014-08-02T05:10:00,0,20848721,195339
OK,68,42,653,68,2014-08-02T05:15:00,0,20848913,195339
OK,68,42,653,68,2014-08-02T05:20:00,0,20849257,195339
OK,68,42,653,68,2014-08-02T05:25:00,0,20849574,195339
OK,68,42,653,68,2014-08-02T05:30:00,0,20849782,195339
OK,68,42,653,68,2014-08-02T05:35:00,0,20850054,195339
OK,68,42,653,68,2014-08-02T05:40:00,0,20850347,195339
OK,68,42,653,68,2014-08-02T05:45:00,0,20850648,195339
OK,68,42,653,68,2014-08-02T05:50:00,0,20851006,195339
OK,68,42,653,68,2014-08-02T05:55:00,0,20851260,195339
OK,68,42,653,68,2014-08-02T06:00:00,0,20851563,195339
OK,68,42,653,68,2014-08-02T06:05:00,0,20852012,195339
OK,68,42,653,68,2014-08-02T06:10:00,0,20852461,195339
OK,68,42,653,68,2014-08-02T06:15:00,0,20852910,195339
OK,68,42,653,68,2014-08-02T06:20:00,0,20853359,195339
OK,68,42,653,68,2014-08-02T06:25:00,0,20853808,195339
OK,68,42,653,68,2014-08-02T06:30:00,0,20854257,195339
OK,68,42,653,68,2014-08-02T06:35:00,0,20854706,195339
OK,68,42,653,68,2014-08-02T06:40:00,0,20855155,195339
OK,68,42,653,68,2014-08-02T06:45:00,0,20855604,195339
OK,68,42,653,68,2014-08-02T06:50:00,0,20856053,195339
OK,68,42,653,68,2014-08-02T06:55:00,0,20856502,195339
OK,68,42,653,68,2014-08-02T07:00:00,0,20856951,195339
OK,68,42,653,68,2014-08-02T07:05:00,0,20857400,195339
OK,68,42,653,68,2014-08-02T07:10:00,0,20857849,195339
OK,68,42,653,68,2014-08-02T07:15:00,0,20858298,195339
OK,68,42,653,68,2014-08-02T07:20:00,0,20858747,195339
OK,68,42,653,68,2014-08-02T07:25:00,0,20859196,195339
OK,68,42,653,68,2014-08-02T07:30:00,0,20859645,195339
OK,68,42,653,68,2014-08-02T07:35:00,0,20860094,195339
OK,68,42,653,68,2014-08-02T07:40:00,0,20860543,195339
OK,68,42,653,68,2014-08-02T07:45:00,0,20860992,195339
OK,68,42,653,68,2014-08-02T07:50:00,0,20861441,195339
OK,68,42,653,68,2014-08-02T07:55:00,0,20861890,195339
OK,68,42,653,68,2014-08-02T08:00:00,0,20862339,195339
OK,68,42,653,68,2014-08-02T08:05:00,0,20862788,195339
OK,68,42,653,68,2014-08-02T08:10:00,0,20863237,195339
OK,68,42,653,68,2014-08-02T08:15:00,0,20863686,195339
OK,68,42,653,68,2014-08-02T08:20:00,0,20864135,195339
OK,68,42,653,68,2014-08-02T08:25:00,0,20864584,195339
OK,68,42,653,68,2014-08-02T08:30:00,0,20865033,195339
OK,68,42,653,68,2014-08-02T08:35:00,0,20865482,195339
OK,68,42,653,68,2014-08-02T08:40:00,0,20865931,195339
OK,68,42,653,68,2014-08-02T08:45:00,0,20866380,195339
OK,68,42,653,68,2014-08-02T08:50:00,0,20866829,195339
OK,68,42,653,68,2014-08-02T08:55:00,0,20867278,195339
OK,68,42,653,68,2014-08-02T09:00:00,0,20867727,195339
OK,68,42,653,68,2014-08-02T09:05:00,0,20868176,195339
OK,68,42,653,68,2014-08-02T09:10:00,0,20868625,195339
OK,68,42,653,68,2014-08-02T09:15:00,0,20869074,195339
OK,68,42,653,68,2014-08-02T09:20:00,0,20869523,195339
OK,68,42,653,68,2014-08-02T09:25:00,0,20869972,195339
OK,68,42,653,68,2014-08-02T09:30:00,0,20870421,195339
OK,68,42,653,68,2014-08-02T09:35:00,0,20870870,195339
OK,68,42,653,68,2014-08-02T09:40:00,0,20871319,195339
OK,68,42,653,68,2014-08-02T09:45:00,0,20871768,195339
OK,68,42,653,68,2014-08-02T09:50:00,0,20872217,195339
OK,68,42,653,68,2014-08-02T09:55:00,0,20872666,195339
OK,68,42,653,68,2014-08-02T10:00:00,0,20873115,195339
OK,68,42,653,68,2014-08-02T10:05:00,0,20873564,195339
OK,68,42,653,68,2014-08-02T10:10:00,0,20874013,195339
OK,68,42,653,68,2014-08-02T10:15:00,0,20874462,195339
OK,68,42,653,68,2014-08-02T10:20:00,0,20874911,195339
OK,68,42,653,68,2014-08-02T10:25:00,0,20875360,195339
OK,68,42,653,68,2014-08-02T10:30:00,0,20875809,195339
OK,68,42,653,68,2014-08-02T10:35:00,0,20876258,195339
OK,68,42,653,68,2014-08-02T10:40:00,0,20876707,195339
OK,68,42,653,68,2014-08-02T10:45:00,0,20877156,195339
OK,68,42,653,68,2014-08-02T10:50:00,0,20877605,195339
OK,143,20,653,143,2014-08-02T10:55:00,2,20878054,195339
OK,143,20,653,143,2014-08-02T11:00:00,2,20878503,195339
OK,146,19,653,146,2014-08-02T11:05:00,0,20878952,195339
OK,146,19,653,146,2014-08-02T11:10:00,0,20879401,195339
OK,146,19,653,146,2014-08-02T11:15:00,0,20879850,195339
OK,146,19,653,146,2014-08-02T11:20:00,0,20880299,195339
OK,238,12,653,238,2014-08-02T11:25:00,1,20880748,195339
OK,238,12,653,238,2014-08-02T11:30:00,0,20881197,195339
OK,350,8,653,350,2014-08-02T11:35:00,1,20881646,195339
OK,350,8,653,350,2014-08-02T11:40:00,0,20882095,195339
OK,99,29,653,99,2014-08-02T11:45:00,1,20882544,195339
OK,99,29,653,99,2014-08-02T11:50:00,1,20882993,195339
OK,99,29,653,99,2014-08-02T11:55:00,0,20883442,195339
OK,99,29,653,99,2014-08-02T12:00:00,0,20883891,195339
OK,99,29,653,99,2014-08-02T12:05:00,0,20884340,195339
OK,99,29,653,99,2014-08-02T12:10:00,0,20884789,195339
OK,99,29,653,99,2014-08-02T12:15:00,0,20885238,195339
OK,99,29,653,99,2014-08-02T12:20:00,0,20885687,195339
OK,99,29,653,99,2014-08-02T12:25:00,0,20886136,195339
OK,99,29,653,99,2014-08-02T12:30:00,0,20886585,195339
OK,99,29,653,99,2014-08-02T12:35:00,0,20887034,195339
OK,99,29,653,99,2014-08-02T12:40:00,0,20887483,195339
OK,99,29,653,99,2014-08-02T12:45:00,0,20887932,195339
OK,99,29,653,99,2014-08-02T12:50:00,0,20888381,195339
OK,99,29,653,99,2014-08-02T12:55:00,0,20888830,195339
OK,99,29,653,99,2014-08-02T13:00:00,0,20889279,195339
OK,99,29,653,99,2014-08-02T13:05:00,0,20889728,195339
OK,99,29,653,99,2014-08-02T13:10:00,0,20890177,195339
OK,99,29,653,99,2014-08-02T13:15:00,0,20890626,195339
OK,99,29,653,99,2014-08-02T13:20:00,0,20891075,195339
OK,99,29,653,99,2014-08-02T13:25:00,0,20891524,195339
OK,99,29,653,99,2014-08-02T13:30:00,0,20891973,195339
OK,99,29,653,99,2014-08-02T13:35:00,0,20892422,195339
OK,99,29,653,99,2014-08-02T13:40:00,0,20892871,195339
OK,99,29,653,99,2014-08-02T13:45:00,0,20893320,195339
OK,99,29,653,99,2014-08-02T13:50:00,0,20893769,195339
OK,99,29,653,99,2014-08-02T13:55:00,0,20894218,195339
OK,99,29,653,99,2014-08-02T14:00:00,0,20894667,195339
OK,99,29,653,99,2014-08-02T14:05:00,0,20895116,195339
OK,99,29,653,99,2014-08-02T14:10:00,0,20895565,195339
OK,99,29,653,99,2014-08-02T14:15:00,0,20896014,195339
OK,99,29,653,99,2014-08-02T14:20:00,0,20896463,195339
OK,99,29,653,99,2014-08-02T14:25:00,0,20896912,195339
OK,99,29,653,99,2014-08-02T14:30:00,0,20897361,195339
OK,99,29,653,99,2014-08-02T14:35:00,0,20897810,195339
OK,99,29,653,99,2014-08-02T14:40:00,0,20898259,195339
OK,99,29,653,99,2014-08-02T14:45:00,0,20898708,195339
OK,99,29,653,99,2014-08-02T14:50:00,0,20899157,195339
OK,152,18,653,152,2014-08-02T14:55:00,2,20899606,195339
OK,225,12,653,225,2014-08-02T15:00:00,1,20900055,195339
OK,225,12,653,225,2014-08-02T15:05:00,0,20900504,195339
OK,225,12,653,225,2014-08-02T15:10:00,0,20900953,195339
OK,225,12,653,225,2014-08-02T15:15:00,0,20901402,195339
OK,225,12,653,225,2014-08-02T15:20:00,0,20901851,195339
OK,225,12,653,225,2014-08-02T15:25:00,0,20902300,195339
OK,225,12,653,225,2014-08-02T15:30:00,0,20902749,195339
OK,225,12,653,225,2014-08-02T15:35:00,0,20903198,195339
OK,225,12,653,225,2014-08-02T15:40:00,0,20903647,195339
OK,225,12,653,225,2014-08-02T15:45:00,0,20904096,195339
OK,225,12,653,225,2014-08-02T15:50:00,0,20904545,195339
OK,225,12,653,225,2014-08-02T15:55:00,0,20904994,195339
OK,225,12,653,225,2014-08-02T16:00:00,0,20905443,195339
OK,225,12,653,225,2014-08-02T16:05:00,0,20905892,195339
OK,225,12,653,225,2014-08-02T16:10:00,0,20906341,195339
OK,225,12,653,225,2014-08-02T16:15:00,0,20906790,195339
OK,225,12,653,225,2014-08-02T16:20:00,0,20907239,195339
OK,225,12,653,225,2014-08-02T16:25:00,0,20907688,195339
OK,225,12,653,225,2014-08-02T16:30:00,0,20908137,195339
OK,225,12,653,225,2014-08-02T16:35:00,0,20908586,195339
OK,225,12,653,225,2014-08-02T16:40:00,0,20909035,195339
OK,225,12,653,225,2014-08-02T16:45:00,0,20909484,195339
OK,225,12,653,225,2014-08-02T16:50:00,0,20909933,195339
OK,225,12,653,225,2014-08-02T16:55:00,0,20910382,195339
OK,225,12,653,225,2014-08-02T17:00:00,0,20910831,195339
OK,225,12,653,225,2014-08-02T17:05:00,0,20911280,195339
OK,225,12,653,225,2014-08-02T17:10:00,0,20911729,195339
OK,225,12,653,225,2014-08-02T17:15:00,0,20912178,195339
OK,225,12,653,225,2014-08-02T17:20:00,0,20912627,195339
OK,225,12,653,225,2014-08-02T17:25:00,0,20913076,195339
OK,225,12,653,225,2014-08-02T17:30:00,0,20913525,195339
OK,225,12,653,225,2014-08-02T17:35:00,0,20913974,195339
OK,225,12,653,225,2014-08-02T17:40:00,0,20914423,195339
OK,225,12,653,225,2014-08-02T17:45:00,0,20914872,195339
OK,225,12,653,225,2014-08-02T17:50:00,0,20915321,195339
OK,225,12,653,225,2014-08-02T17:55:00,0,20915770,195339
OK,225,12,653,225,2014-08-02T18:00:00,0,20916219,195339
OK,225,12,653,225,2014-08-02T18:05:00,0,20916668,195339
OK,225,12,653,225,2014-08-02T18:10:00,0,20917117,195339
OK,225,12,653,225,2014-08-02T18:15:00,0,20917566,195339
OK,225,12,653,225,2014-08-02T18:20:00,0,20918015,195339
OK,225,12,653,225,2014-08-02T18:25:00,0,20918464,195339
OK,225,12,653,225,2014-08-02T18:30:00,0,20918913,195339
OK,225,12,653,225,2014-08-02T18:35:00,0,20919362,195339
OK,225,12,653,225,2014-08-02T18:40:00,0,20919811,195339
OK,225,12,653,225,2014-08-02T18:45:00,0,20920260,195339
OK,225,12,653,225,2014-08-02T18:50:00,0,20920709,195339
OK,225,12,653,225,2014-08-02T18:55:00,0,20921158,195339
OK,225,12,653,225,2014-08-02T19:00:00,0,20921607,195339
OK,225,12,653,225,2014-08-02T19:05:00,0,20922056,195339
OK,225,12,653,225,2014-08-02T19:10:00,0,20922505,195339
OK,225,12,653,225,2014-08-02T19:15:00,0,20922954,195339
OK,225,12,653,225,2014-08-02T19:20:00,0,20923403,195339
OK,225,12,653,225,2014-08-02T19:25:00,0,20923852,195339
OK,225,12,653,225,2014-08-02T19:30:00,0,20924301,195339
OK,225,12,653,225,2014-08-02T19:35:00,0,20924750,195339
OK,225,12,653,225,2014-08-02T19:40:00,0,20925199,195339
OK,225,12,653,225,2014-08-02T19:45:00,0,20925648,195339